Find Starlink 4507

NORAD ID: 53403 Int'l Des: 2022-097 Owner: SPXS Country: US Constellation: starlink operational
LEOCIRCULAR

現在のビュー

3D地球を読み込み中...

About Starlink 4507

Starlink 4507 (NORAD 53403) is a starlink constellation satellite (v1.5) launched Aug 10, 2022 by SPXS of US. It operates in LEO, CIRCULAR orbit with a mass of 297.00 kg.

Starlink 4507について

説明を読み込み中...

次回通過

Passes for default location (London). Set your location on the main map for personalized predictions.

高度履歴

Loading altitude history...

軌道要素

1 53403U 22097R 26165.95012806 .00000409 00000-0 43827-4 0 9997
2 53403 53.1603 47.7654 0001327 93.5005 266.6138 15.08832391213191
Epoch: Jun 14, 2026 • Age: 23 hours

現在のステータス

高度 558.8 km
速度 7.58 km/s
衛星直下点 -52.36°S, 61.08°E
打ち上げ日 Aug 10, 2022
運用期間 3.8 years
タイプ internet

技術仕様

分類 Payload
質量 297.00 kg
乾燥質量 275.00 kg
総質量 297.00 kg
長さ 0.20 m
直径 2.80 m
スパン 9.00 m
形状 Box + pan
製造者 SPXS
バスタイプ Starlink
フェーズステータス In Orbit
所有者/国 SPXS/US

Most Searched